Cloud_Cover
0 0 0 0 0 0 0 0 0 0 0 0 0 0 0 0 0 0 0 0 1 2 4 0 2 5 5 100 51 6 0 0 0 0 0 0 0 0 6 46 73 100 100 100 100
0 1 0 2 0 0 0 0 0 0 0 0 0 0 2 2 2 3 3 4 48 100 60 5 5 10 83 87 99 4 0 0 0 0 0 0 0 2 22 9 35 100 100 100 100
13 10 1 0 1 0 0 0 0 0 0 0 0 5 5 5 5 5 5 5 56 100 37 39 13 100 99 98 100 13 0 0 0 0 0 0 0 3 5 35 5 94 100 100 100
6 19 4 0 0 0 0 0 0 0 0 0 0 2 2 16 25 13 5 6 58 100 62 100 96 100 100 100 91 22 5 0 0 0 0 0 0 0 6 38 94 100 93 100 100
85 16 22 11 0 0 0 0 0 0 0 0 0 1 5 5 48 18 95 97 79 100 85 100 92 100 100 100 100 50 18 0 0 0 0 0 0 0 13 98 100 98 100 100 100
100 7 28 19 15 0 0 0 0 0 0 0 0 5 5 22 48 100 100 22 20 100 72 100 100 100 100 94 95 100 96 5 0 0 0 0 0 0 1 76 99 97 100 100 100
90 40 10 17 8 0 0 0 0 0 0 0 0 3 5 5 34 94 64 5 5 96 75 100 100 97 100 100 100 88 100 98 4 0 75 0 0 0 0 78 100 100 100 100 100
65 95 11 7 12 0 0 0 0 0 0 0 0 0 3 20 99 85 100 100 61 72 5 84 97 100 100 76 78 77 93 25 5 0 2 4 0 0 0 12 89 100 100 100 99
99 23 22 3 4 0 0 0 0 0 0 0 0 0 2 27 42 98 99 80 100 100 61 68 69 88 89 81 96 92 6 5 0 0 0 12 0 0 0 32 35 54 98 100 100
92 100 12 12 0 0 0 0 0 0 0 0 0 0 0 5 8 62 99 12 85 30 95 100 98 90 92 98 99 100 43 84 0 0 0 0 2 4 61 65 53 64 100 100 100
89 100 53 5 5 0 0 0 0 0 0 0 0 0 0 0 5 75 79 28 88 90 37 18 5 29 64 98 66 98 100 36 13 0 0 0 4 2 6 100 37 100 85 98 87
100 100 34 80 5 5 0 0 0 0 0 0 0 1 0 0 2 28 5 5 71 75 95 63 75 39 41 64 100 98 97 90 63 0 0 1 3 0 15 13 39 61 100 100 96
100 100 11 17 23 5 1 0 0 0 0 0 0 0 0 0 0 4 5 5 5 5 70 100 99 29 100 54 100 100 97 71 87 0 0 0 18 5 57 1 7 98 79 100 100
41 100 26 8 54 41 5 2 0 0 2 0 0 0 0 0 0 0 3 2 5 11 80 43 97 79 46 69 84 97 100 100 100 22 0 0 0 2 65 29 7 39 99 100 100
8 93 33 51 71 100 53 5 0 0 0 0 0 0 0 0 0 0 0 0 3 5 5 40 19 86 97 100 100 100 44 97 100 52 0 0 7 0 0 80 47 52 96 84 79
100 55 18 90 97 100 100 6 5 1 0 2 0 0 0 0 0 0 0 0 0 3 12 11 12 88 100 91 99 100 100 100 83 99 96 4 2 5 3 0 35 40 73 79 86
100 100 66 54 100 100 100 57 50 5 0 3 4 0 0 0 0 0 0 0 1 5 5 5 40 36 98 100 100 100 100 99 82 100 100 88 3 7 2 2 0 22 78 7 5
100 27 98 72 100 100 100 100 99 6 5 5 5 0 0 0 0 0 1 2 0 5 5 18 5 65 5 6 70 100 100 100 100 80 100 100 14 2 5 5 5 0 5 19 5
100 100 60 80 97 100 100 100 100 40 10 5 5 5 5 0 0 0 0 5 5 5 25 4 44 12 5 9 5 7 95 99 100 100 95 20 0 0 44 80 33 0 0 5 5
100 100 100 97 63 83 100 100 100 100 31 62 5 5 5 0 0 0 0 0 3 5 5 5 4 16 36 5 5 6 30 69 99 49 81 10 0 5 53 98 47 5 0 0 0
100 100 100 100 100 100 100 100 100 100 100 88 87 6 5 5 0 3 0 0 0 0 5 5 31 53 100 61 5 5 5 5 17 5 5 5 4 2 93 36 90 11 0 0 0
100 100 100 100 100 100 100 100 100 100 100 100 86 98 12 5 5 0 5 0 0 0 0 5 5 6 99 94 51 94 1 5 73 14 0 2 36 0 0 64 100 89 0 0 0
56 100 100 100 100 100 100 100 100 100 100 100 100 100 92 79 5 5 0 5 0 0 0 0 1 5 44 44 71 78 96 86 44 4 4 0 0 0 2 20 5 4 4 0 1
83 97 100 100 100 100 100 100 100 100 100 100 100 100 100 100 90 9 5 4 5 0 0 0 0 0 3 9 46 56 99 100 77 46 5 4 2 0 0 5 98 82 6 34 100
94 99 100 94 100 100 100 100 100 100 100 100 100 100 100 100 100 100 17 0 5 4 0 3 0 0 0 2 5 5 16 48 89 100 100 100 98 88 40 5 5 30 100 100 22
100 100 99 100 100 100 100 100 100 100 100 100 100 100 100 100 100 100 100 76 3 4 5 4 5 3 0 0 1 5 5 5 5 35 95 100 100 100 100 100 100 100 100 100 100
100 100 99 70 100 100 100 100 100 100 100 100 100 100 100 100 100 100 100 100 99 7 5 5 5 5 5 5 5 30 7 8 5 5 5 5 5 2 9 34 61 93 100 100 100